Theta_e
325 324 328 331 331 329 334 349 349 351 351 346 344 344 343 342 344 347 345 338 334 341 348 344 343 335 332 332 332 331 331 331 332 332 332 333 333 334 334 335 336 337 337 337 336 335 334 333 332
327 327 330 327 333 335 335 338 351 350 346 345 345 343 347 349 347 343 343 341 335 338 343 343 341 332 331 332 331 331 331 332 332 332 332 332 333 333 335 335 334 335 337 340 340 339 338 337 336
326 329 328 329 331 335 339 349 349 346 345 347 348 344 347 347 345 342 342 339 332 339 341 342 336 331 331 330 330 331 332 332 332 332 333 334 334 334 334 334 335 335 335 335 335 335 335 335 334
327 326 325 332 336 333 343 348 348 348 346 345 348 351 346 345 344 344 341 337 331 333 336 335 332 330 330 330 331 332 332 332 332 333 334 334 334 335 335 336 336 336 336 335 334 334 334 334 333
325 323 327 331 335 334 335 345 344 345 344 347 347 349 347 346 345 344 343 335 332 334 333 332 331 330 331 332 332 332 331 331 332 333 333 335 338 339 338 337 337 338 340 339 337 338 338 338 337
318 322 325 328 332 333 333 341 339 341 343 345 346 346 345 346 344 344 343 337 336 332 333 332 333 333 332 331 330 330 331 332 334 337 341 341 342 343 344 340 336 340 342 343 342 340 340 340 338
318 324 328 332 334 334 336 337 340 341 343 344 342 347 344 347 345 344 342 342 342 335 334 331 331 331 331 329 330 331 333 336 340 341 340 338 339 340 342 343 343 341 339 340 337 337 337 337 337
320 324 335 333 333 334 333 338 339 339 342 339 342 348 347 344 345 344 344 345 341 337 332 329 329 329 330 331 333 334 336 339 341 338 333 335 330 331 333 338 340 330 328 335 337 330 326 328 333
322 325 330 332 334 332 328 337 336 337 341 344 343 343 343 346 349 350 348 343 339 335 333 333 334 332 334 334 335 337 339 340 338 333 331 330 329 328 327 329 326 325 325 328 327 325 325 325 327
318 320 322 327 330 328 327 335 334 344 344 345 345 343 343 341 345 344 343 345 344 343 337 337 341 338 338 340 340 340 341 341 333 332 329 327 326 325 323 323 322 324 324 325 324 323 323 323 324
319 319 320 328 331 328 325 331 337 344 346 344 346 345 337 339 340 340 341 345 347 346 346 343 345 347 348 347 345 345 342 339 332 330 327 326 327 326 326 325 324 321 322 323 322 321 321 321 322
320 319 324 329 332 325 325 327 337 341 342 342 344 339 337 339 339 340 342 342 345 345 346 347 348 345 338 333 338 340 336 333 331 329 328 327 327 326 326 325 324 321 321 321 321 321 320 320 319
319 318 321 321 323 324 325 328 337 332 342 343 338 338 338 338 338 340 341 343 343 337 341 341 332 329 328 328 328 328 328 329 331 329 328 328 327 327 326 325 325 321 322 322 321 320 319 319 317
320 319 320 319 325 326 327 330 329 329 342 343 338 338 337 337 338 340 339 340 341 337 334 332 330 329 329 329 328 328 328 327 326 327 326 325 326 327 328 326 324 322 323 321 321 320 320 319 319
320 320 318 320 322 326 328 332 331 332 342 342 340 338 337 337 338 338 338 336 338 336 332 332 329 327 327 328 327 327 326 327 327 327 326 325 325 326 327 325 325 324 324 323 320 320 321 321 321
318 317 318 317 325 326 322 325 324 332 341 341 340 338 337 336 334 335 335 335 334 334 329 332 332 331 329 328 325 327 329 330 328 327 325 323 322 323 324 324 324 323 323 323 322 321 319 318 315
316 320 320 322 321 326 323 326 325 330 340 338 338 337 337 333 332 331 332 334 332 331 330 334 333 330 328 328 328 330 331 329 327 325 322 320 319 318 317 317 317 318 319 319 319 319 317 316 316
321 323 322 321 320 319 320 322 320 331 336 339 336 334 334 332 331 331 333 332 334 333 333 332 330 329 330 330 332 332 331 331 325 320 317 316 315 316 315 315 314 314 314 315 317 317 315 315 317
322 323 325 324 320 320 319 320 319 325 338 338 336 333 332 332 331 332 333 335 333 333 331 332 331 331 331 332 333 333 332 325 319 318 316 316 316 316 316 315 314 314 314 316 317 315 315 317 317
322 322 322 322 321 320 321 324 325 327 337 338 336 333 332 331 331 332 333 335 330 332 331 330 330 331 332 333 333 329 323 320 318 317 317 318 317 317 315 314 314 312 314 313 316 317 317 316 315
323 323 323 324 322 320 320 326 325 329 335 337 336 334 332 331 331 331 332 333 328 331 333 330 332 334 335 334 329 321 319 319 318 317 317 317 317 315 314 312 312 311 314 313 313 312 313 313 313
324 324 325 326 323 324 319 325 324 324 332 337 336 334 333 331 331 330 331 330 329 330 333 333 333 331 331 323 321 319 319 318 318 319 318 318 315 314 312 311 311 311 311 313 313 313 312 312 311
325 325 323 323 323 319 320 321 322 323 326 330 334 334 332 331 330 329 330 330 329 333 334 334 331 327 323 321 320 320 319 319 319 318 317 314 313 313 311 311 310 310 311 313 314 313 312 312 312
323 323 320 319 317 321 320 324 325 323 325 324 322 327 333 331 329 330 331 331 330 333 332 330 325 323 322 321 321 319 318 317 317 315 313 313 313 312 312 311 310 310 311 312 313 312 310 309 309
321 320 322 322 324 323 319 324 321 321 322 321 326 329 332 331 330 329 328 329 330 330 328 324 323 323 321 320 317 315 316 317 315 313 313 313 312 310 309 309 310 309 310 311 312 311 309 309 308
322 320 322 326 323 320 322 325 322 321 320 320 324 330 331 329 326 326 326 325 326 329 325 323 320 320 318 315 315 317 316 315 313 313 312 310 309 309 308 308 308 308 308 309 310 308 308 308 308
325 324 320 319 322 322 321 324 323 323 322 320 322 328 329 327 325 325 325 322 324 325 322 319 318 315 315 315 318 316 314 313 313 310 308 308 308 308 308 308 308 308 309 309 308 307 307 308 307
325 321 324 321 329 329 323 325 324 324 323 322 322 320 319 319 320 321 321 318 318 317 317 315 314 314 315 316 315 314 314 312 310 308 307 307 308 308 308 309 309 308 307 307 307 307 307 307 307
327 323 320 319 322 325 326 323 320 321 321 320 318 316 315 315 315 315 316 317 316 315 314 314 314 314 315 315 314 313 312 310 308 308 307 308 308 308 308 309 308 307 307 307 307 307 308 307 307
325 324 319 322 322 322 320 322 319 319 319 318 317 316 316 314 312 312 313 315 314 313 313 314 313 314 315 314 313 312 310 309 308 307 308 309 308 308 308 308 308 307 307 307 307 307 307 308 307
Wind_Speed
9 4 4 3 5 6 3 3 0 5 4 1 8 3 5 2 2 2 2 16 13 18 17 16 13 12 10 9 8 8 8 9 8 9 8 8 7 7 7 7 7 7 7 7 8 7 8 8 7
8 7 3 1 5 5 3 1 2 2 5 13 10 6 3 1 3 5 10 16 14 18 18 17 14 13 11 10 9 8 7 7 6 6 6 6 6 6 7 6 6 7 7 8 8 8 8 8 8
13 2 4 4 4 1 3 4 7 8 12 3 4 3 3 2 3 12 3 16 18 18 17 16 14 12 11 10 8 7 6 5 4 4 4 4 5 6 6 7 8 8 8 8 8 9 9 9 9
10 7 4 4 1 2 7 7 11 7 6 6 6 5 3 3 10 9 17 18 19 18 17 16 15 12 11 9 7 6 4 3 2 3 4 5 6 7 8 8 8 9 9 10 10 10 11 11 10
7 4 4 2 1 2 3 9 6 6 3 6 4 4 2 3 11 19 21 19 20 19 17 15 13 12 10 8 6 4 3 1 2 3 4 5 7 8 8 9 9 10 10 10 11 12 13 13 13
4 3 4 2 4 3 2 14 7 3 5 6 6 6 2 12 21 19 18 18 17 17 15 14 12 10 8 7 5 4 2 3 3 4 5 6 8 8 8 10 11 9 11 12 12 13 13 14 13
5 4 3 2 5 3 6 11 8 7 11 5 8 5 4 7 18 19 17 14 13 15 14 13 12 10 8 7 5 4 5 4 4 5 5 7 6 8 8 8 8 9 11 10 9 11 11 11 10
5 4 2 2 4 2 6 4 7 9 7 10 9 6 6 9 19 19 14 11 12 13 12 11 9 10 9 7 6 5 4 4 3 4 4 5 9 10 7 6 6 7 8 5 6 9 10 12 10
3 4 2 5 5 7 6 4 5 1 13 3 4 6 15 22 20 19 18 12 11 13 14 12 10 10 8 7 6 6 5 4 4 2 4 6 4 5 7 6 6 5 6 5 5 5 7 9 10
4 3 7 8 7 9 12 9 10 6 13 3 8 12 20 25 25 17 11 11 10 11 14 14 13 10 8 6 5 6 7 6 5 5 4 1 3 5 7 6 7 6 4 3 3 5 7 9 9
3 6 4 7 8 8 9 9 4 18 5 14 21 17 15 23 21 19 17 23 23 20 18 18 13 11 10 9 8 9 7 7 7 5 3 3 8 7 9 11 11 9 7 4 4 6 7 8 7
2 8 6 2 7 7 10 8 4 11 7 19 22 20 17 18 20 24 26 20 27 20 25 23 19 12 8 7 8 9 6 7 7 4 3 8 10 13 17 14 9 9 9 9 7 8 8 6 7
4 7 5 5 12 8 11 8 8 6 15 18 14 17 17 15 21 27 23 29 28 25 22 21 19 18 16 13 11 8 5 2 5 4 8 12 14 15 17 14 12 11 12 9 10 11 10 10 10
2 5 2 4 3 6 9 5 6 3 20 18 14 17 16 15 19 14 15 24 29 25 22 22 23 19 15 14 9 7 4 2 2 5 6 7 10 12 14 14 14 12 11 10 9 9 8 5 6
3 3 4 0 5 5 9 2 6 10 20 17 15 13 9 6 8 16 20 17 24 24 20 20 19 18 15 12 8 3 3 3 3 6 8 10 11 11 10 12 13 11 9 11 11 10 7 6 5
5 6 5 6 2 3 6 4 3 15 21 16 12 9 8 3 4 14 11 8 14 19 18 17 17 15 12 6 3 1 2 3 6 8 11 12 12 10 8 8 8 9 9 9 7 5 5 6 14
8 3 4 4 5 4 2 3 10 12 17 9 11 7 6 6 5 12 9 11 12 16 17 16 15 12 9 7 4 2 0 4 8 11 13 14 13 12 11 12 15 16 14 13 13 14 15 18 16
2 1 4 5 7 9 6 3 7 9 17 15 11 8 7 8 11 14 9 9 11 13 16 16 13 10 9 6 5 4 1 6 9 12 17 18 20 19 17 21 21 18 19 21 19 18 19 16 10
1 5 3 2 6 4 4 6 8 5 8 10 9 10 9 11 8 17 13 9 11 12 12 19 16 12 9 7 5 3 4 7 8 15 16 18 20 19 21 23 19 16 17 18 20 20 17 12 7
4 5 4 4 6 4 7 8 7 6 3 7 12 9 10 4 8 10 14 10 6 13 16 14 13 9 7 6 6 5 7 9 14 15 15 16 16 18 19 18 18 18 18 18 11 5 4 5 7
4 4 1 2 3 3 6 5 6 6 5 2 3 2 5 11 11 6 9 13 8 13 18 13 10 8 6 7 9 8 9 11 13 14 14 14 16 18 16 18 18 18 15 13 12 9 7 7 8
3 2 2 4 3 2 3 3 4 4 2 4 5 5 7 9 4 2 8 14 14 12 14 14 12 7 9 10 11 9 10 12 13 13 13 12 16 15 19 15 17 17 14 14 11 6 5 5 6
3 2 3 2 1 5 8 5 5 2 1 4 7 8 8 7 6 6 13 19 17 13 16 16 12 12 12 12 11 9 11 13 13 12 11 14 16 16 15 13 15 18 16 14 11 9 8 7 7
2 3 7 5 3 4 3 4 3 2 5 3 4 8 8 8 8 8 10 12 18 16 14 13 15 15 14 11 9 11 13 14 11 10 13 13 13 14 15 16 22 20 14 11 12 8 8 9 10
9 8 5 6 6 3 6 4 7 4 3 6 7 7 9 7 4 6 8 7 10 11 13 15 15 13 10 9 11 13 14 9 10 12 13 13 15 19 20 18 17 20 16 12 11 12 15 17 17
4 5 5 1 1 5 5 2 4 2 1 2 4 5 4 4 5 4 5 8 16 20 19 15 11 10 8 10 13 11 8 8 9 9 10 17 18 20 19 18 20 17 17 15 14 18 22 19 15
1 4 3 6 2 2 3 2 3 1 2 2 4 5 5 5 7 8 11 16 18 18 15 11 9 8 9 11 8 8 7 7 6 12 16 17 18 19 17 17 16 18 18 16 21 23 21 14 13
3 5 3 4 0 2 4 4 5 6 3 1 5 6 7 7 8 8 12 18 13 10 9 8 6 7 7 6 6 5 6 6 10 14 18 17 18 19 19 18 18 21 19 19 19 18 14 12 12
3 2 6 4 4 4 1 6 7 9 10 9 7 6 7 7 6 7 12 10 11 10 8 7 5 5 5 5 7 7 7 10 13 17 18 16 19 20 19 17 21 20 18 16 16 14 13 11 11
2 3 4 5 4 2 4 7 3 7 5 6 8 9 5 6 7 5 10 13 12 11 8 5 5 6 4 5 7 7 11 12 16 19 18 17 23 20 17 16 16 17 15 15 14 13 10 10 10
Wind_Direction
21 84 153 103 56 63 10 339 58 125 117 96 122 147 160 142 184 198 309 154 156 157 161 165 158 152 147 137 123 108 97 88 78 72 66 62 56 49 44 40 34 27 22 18 17 19 18 15 13
19 121 133 78 82 59 303 13 168 145 126 116 99 123 84 67 106 117 126 181 170 160 163 163 162 158 154 147 136 122 110 97 85 75 62 45 39 30 17 12 11 7 1 357 353 353 355 354 350
337 123 82 82 91 177 142 126 146 121 129 119 107 108 99 100 51 149 185 167 168 166 165 165 166 163 158 152 146 133 120 108 90 67 50 31 19 9 359 353 348 347 344 338 336 335 334 335 333
349 11 36 83 260 270 137 160 138 137 86 61 111 72 51 91 158 172 164 166 171 170 170 170 171 168 164 160 153 144 132 109 64 38 16 6 357 352 346 345 342 342 336 334 331 328 326 322 319
26 72 48 21 156 143 143 152 147 158 94 120 123 121 73 38 145 155 164 171 173 173 174 174 173 173 172 168 163 154 140 84 23 17 19 15 7 1 355 344 338 333 337 338 332 331 328 322 316
30 74 16 336 332 157 172 158 154 131 146 125 111 107 107 145 145 159 168 173 178 173 175 177 181 181 181 182 175 166 163 115 74 45 37 25 3 354 354 354 355 340 343 338 335 337 334 333 329
107 87 251 156 289 84 158 149 148 176 147 165 151 111 132 155 163 162 169 176 182 181 180 181 184 187 196 191 187 170 145 128 97 77 36 19 16 11 2 357 8 12 358 351 351 351 351 346 333
115 97 140 260 231 134 135 120 150 185 171 130 146 161 160 193 162 162 167 170 179 184 185 184 189 192 191 196 184 176 162 146 115 88 69 60 61 50 36 22 45 18 15 4 18 42 39 27 19
117 61 218 226 199 165 139 141 148 228 136 181 180 116 147 162 153 157 152 151 165 182 186 180 181 191 186 182 187 189 183 178 149 122 95 105 57 33 21 35 20 27 14 39 59 21 10 16 18
107 138 242 198 187 164 167 166 178 124 153 104 100 122 122 132 146 130 139 156 178 211 202 191 184 194 193 186 206 226 209 214 197 181 156 137 347 354 360 0 349 344 9 31 29 5 358 354 3
177 206 231 215 190 144 155 178 211 135 206 164 151 151 128 131 132 140 151 181 187 191 203 200 191 197 214 225 240 246 215 216 211 201 207 287 315 311 330 327 329 310 312 317 334 343 354 358 9
281 243 192 198 158 138 170 122 90 179 188 164 160 148 149 151 158 163 187 161 179 190 177 190 196 201 191 182 173 187 206 221 224 234 281 300 306 320 321 311 297 290 289 280 286 306 325 349 357
199 276 153 266 160 153 127 173 177 221 136 156 131 155 165 161 173 180 177 180 173 170 167 162 161 154 142 140 137 145 132 144 211 297 297 303 284 296 302 294 287 280 281 264 268 280 280 288 309
248 329 220 132 198 131 135 152 138 209 147 153 157 169 175 172 175 169 176 181 178 174 171 169 158 152 146 140 126 121 114 72 321 342 354 345 322 315 300 290 286 287 270 273 268 267 268 276 291
301 217 1 69 173 142 123 51 192 129 156 158 176 171 163 191 138 169 186 191 180 178 172 168 157 154 157 152 151 124 29 3 356 355 340 339 341 340 320 308 306 302 285 281 282 272 274 293 303
19 43 5 336 50 26 57 225 206 153 162 166 167 161 173 200 176 184 196 196 173 173 175 174 168 162 159 156 164 355 352 349 356 343 342 345 348 345 346 353 345 333 319 303 305 304 301 298 319
19 9 348 355 37 129 74 265 67 157 163 135 160 164 174 216 263 216 226 207 192 188 191 180 178 170 170 176 184 203 115 11 1 346 347 349 352 351 347 339 329 325 314 305 301 302 312 312 312
273 63 24 40 328 56 27 22 53 153 158 160 155 153 185 199 230 236 253 235 218 211 202 194 180 180 185 181 176 161 106 346 336 340 342 338 332 330 331 332 331 322 296 288 290 294 300 298 296
211 113 104 326 335 80 19 7 355 40 103 127 154 171 192 210 255 249 253 219 213 210 205 201 191 198 198 183 200 231 279 307 317 328 328 324 319 321 330 333 331 333 337 321 294 287 286 280 290
195 108 3 328 349 69 47 33 15 50 145 184 162 185 202 214 242 245 231 233 248 234 217 210 205 204 211 236 229 266 307 310 312 322 319 308 309 316 326 325 325 327 321 308 331 319 287 271 283
25 79 12 221 343 45 98 16 11 16 29 29 57 188 223 211 217 230 223 237 240 236 224 217 198 206 234 233 261 260 296 290 301 305 301 303 311 321 322 317 318 317 302 313 307 299 289 287 280
54 257 243 265 87 201 53 211 358 20 351 301 259 240 231 233 237 189 220 239 234 239 210 198 197 240 234 239 252 279 276 287 293 293 294 304 317 313 320 319 323 323 301 301 293 290 280 248 265
220 353 32 13 92 92 346 79 263 180 88 258 254 252 248 245 230 219 224 230 226 230 205 208 226 227 228 242 257 272 281 282 284 289 298 307 308 309 318 306 322 324 312 302 272 275 279 270 269
29 16 42 48 54 61 267 123 257 226 169 223 253 235 234 231 227 227 234 228 220 216 218 208 209 223 233 252 270 281 279 280 282 291 299 299 294 305 309 310 316 313 309 299 285 280 292 294 286
57 46 357 12 12 244 325 55 236 258 184 181 187 214 213 212 197 197 200 206 200 208 199 211 223 237 254 261 273 277 276 270 286 294 293 297 307 316 319 318 309 310 303 292 276 288 293 291 285
66 108 135 45 303 280 336 136 259 246 127 180 174 156 132 175 195 197 182 218 216 213 211 215 235 246 241 262 270 266 265 279 291 309 325 320 316 316 320 327 315 312 303 294 280 289 296 293 284
132 41 173 105 12 42 290 321 356 104 186 115 128 140 179 216 185 181 189 199 197 201 209 231 214 232 253 266 251 252 265 293 319 326 329 326 321 318 315 312 312 310 303 290 300 301 294 283 282
94 154 38 15 87 288 304 284 234 229 208 227 137 161 189 209 192 195 192 192 200 198 184 193 222 249 263 251 255 273 297 307 328 338 335 325 324 327 319 313 317 317 312 308 307 304 291 284 287
12 31 55 111 132 172 224 269 216 209 196 194 194 185 189 183 180 178 189 183 168 167 184 207 228 270 268 275 294 292 298 318 332 334 321 322 327 327 322 314 317 319 317 313 312 306 297 288 288
177 161 124 119 248 196 158 269 301 254 202 163 200 212 187 179 188 163 152 161 172 187 196 215 273 257 267 291 304 299 314 319 328 328 320 327 327 327 326 323 321 324 324 320 316 312 306 300 299